Temp
18 19 19 20 20 21 21 22 22 22 23 23 24 24 25 26 26 26 26 27 27 28 28 29 30 30 30 30 31 30 21 21 23 28 31 33 30 30 31 30 29 29 26 25 24
19 19 19 20 20 21 21 22 22 22 23 23 24 25 25 26 26 26 27 27 27 28 27 27 29 31 31 31 31 28 23 24 29 32 33 34 31 30 28 29 27 26 25 25 24
18 19 19 20 20 21 21 22 22 23 23 24 24 25 25 26 26 26 27 28 28 28 28 28 29 30 31 32 30 30 27 28 32 34 35 34 30 29 27 25 28 26 25 25 24
18 19 19 20 20 21 21 22 23 23 23 24 25 25 26 26 27 28 28 28 28 28 28 29 30 30 30 31 31 28 30 32 34 34 34 33 30 27 28 29 28 27 25 25 25
18 18 19 20 20 21 22 22 23 23 24 24 25 26 26 26 27 28 28 28 28 28 29 30 31 32 30 32 34 32 33 34 35 34 34 34 33 30 31 30 28 27 26 25 25
17 18 19 20 20 21 22 22 23 23 24 24 25 25 26 25 28 27 28 28 28 28 29 30 31 31 32 32 32 33 33 34 34 35 35 32 30 33 31 29 28 27 26 26 26
17 18 18 19 20 21 22 22 23 23 24 24 25 25 26 27 27 27 28 28 28 28 29 30 30 30 31 29 33 34 31 31 33 34 33 33 29 31 32 30 28 27 27 27 26
17 18 18 19 20 21 22 23 23 24 24 24 25 24 27 28 28 27 27 28 28 28 29 29 29 30 30 32 32 32 30 28 31 33 32 32 28 30 32 31 29 28 28 27 27
17 17 18 19 20 21 22 23 23 24 24 24 24 23 25 27 28 28 27 28 29 29 29 29 29 30 31 28 26 28 26 29 32 34 33 33 28 29 32 31 30 29 29 28 27
16 17 18 19 20 21 22 23 24 24 24 24 24 23 27 27 28 28 28 28 29 29 29 29 29 26 26 26 25 29 30 30 30 32 33 32 30 30 31 31 30 30 29 28 27
16 17 18 19 20 21 23 24 24 23 23 24 26 27 28 29 29 29 28 28 29 29 27 30 26 25 26 28 31 31 30 30 32 33 32 32 30 30 32 30 29 29 29 28 27
16 17 17 18 20 20 22 22 22 23 23 25 26 26 28 29 28 28 29 28 29 26 28 27 26 28 32 32 31 31 30 29 31 32 31 32 30 30 30 30 29 28 28 28 27
15 16 17 18 20 20 21 22 22 23 23 25 27 27 28 29 29 29 29 28 28 27 28 26 29 32 33 31 31 30 30 29 30 32 32 31 28 28 31 32 29 29 28 28 27
15 16 17 19 20 20 21 22 22 23 19 26 27 29 29 29 29 29 29 29 29 28 29 28 31 32 32 31 31 28 30 32 32 28 26 30 24 26 28 29 29 28 28 28 27
15 16 16 18 19 20 20 21 22 22 20 29 29 30 29 29 31 30 30 29 28 29 30 28 30 31 30 31 31 29 32 31 30 28 28 27 25 26 27 27 26 28 28 28 28
14 15 16 17 19 19 20 21 21 20 21 30 30 29 28 30 29 31 30 30 30 29 30 29 32 32 32 32 32 32 30 30 28 26 23 25 26 24 26 27 23 26 29 28 27
14 15 16 17 18 18 19 20 19 19 28 29 28 28 27 28 29 30 29 27 25 26 25 28 30 32 33 30 31 31 27 22 23 23 22 25 27 25 28 28 27 26 28 28 27
15 16 17 18 18 18 19 19 19 25 25 28 29 28 27 28 28 29 28 26 27 27 25 25 25 29 31 29 29 28 25 21 25 23 23 27 25 26 26 28 31 31 30 28 27
15 16 17 18 18 18 18 17 20 24 28 28 28 28 27 29 29 28 27 27 28 27 25 26 27 32 32 32 30 29 26 26 25 26 24 24 27 27 26 27 29 30 30 28 27
15 16 17 17 18 18 16 17 22 26 27 28 26 29 28 29 28 27 27 28 29 30 29 27 26 31 32 32 31 29 29 25 22 25 24 25 25 23 24 24 25 25 29 28 27
15 15 18 18 17 17 15 18 23 25 26 27 26 25 26 26 29 28 27 30 30 30 30 27 26 27 30 29 28 27 26 27 24 23 23 23 23 23 21 21 22 19 26 29 27
15 15 18 18 17 18 17 21 23 24 25 27 27 27 26 26 27 27 28 29 32 32 28 28 26 25 27 29 30 28 27 25 21 24 22 23 22 22 21 22 18 18 23 25 28
12 16 18 18 16 17 20 22 23 23 24 27 26 27 28 25 24 26 28 30 30 28 26 26 24 23 24 26 28 29 30 30 25 22 24 23 21 22 21 18 17 17 21 22 25
11 16 18 17 19 18 19 20 22 25 25 27 25 26 26 26 24 25 26 29 29 28 29 28 25 24 22 26 27 29 29 29 25 22 23 24 23 19 18 18 19 17 19 22 25
13 17 16 17 18 18 19 20 22 23 26 26 23 25 25 25 23 24 27 27 29 27 28 25 24 25 25 27 28 28 29 27 27 24 24 26 21 18 17 17 18 25 28 26 21
13 14 14 16 19 19 19 20 22 23 24 24 23 24 24 25 23 23 23 23 23 26 27 23 23 26 24 27 28 28 28 27 28 27 28 21 20 18 17 21 21 22 25 23 22
12 12 14 16 18 19 19 21 23 23 24 25 25 24 23 21 22 24 25 26 25 23 22 24 23 23 22 25 25 24 26 27 27 26 26 26 20 17 17 16 18 21 25 24 23
Height
1533 1531 1529 1529 1528 1526 1525 1523 1522 1520 1519 1516 1514 1513 1510 1508 1508 1507 1506 1506 1504 1504 1503 1503 1503 1503 1503 1506 1508 1514 1542 1549 1531 1511 1498 1492 1498 1501 1505 1508 1511 1511 1514 1523 1528
1532 1531 1530 1529 1528 1525 1525 1523 1522 1521 1518 1516 1514 1512 1509 1507 1507 1507 1505 1505 1504 1504 1504 1503 1502 1502 1504 1506 1506 1504 1527 1527 1503 1489 1492 1490 1494 1499 1504 1508 1515 1519 1522 1524 1528
1532 1531 1530 1528 1527 1525 1525 1523 1521 1520 1517 1515 1514 1511 1509 1507 1508 1506 1505 1504 1504 1504 1504 1504 1503 1502 1499 1502 1506 1500 1506 1498 1494 1491 1491 1491 1496 1499 1502 1510 1512 1517 1522 1525 1528
1531 1531 1529 1528 1526 1524 1524 1522 1520 1519 1517 1516 1514 1511 1508 1508 1510 1507 1505 1504 1505 1505 1505 1502 1502 1502 1499 1495 1494 1502 1496 1496 1493 1494 1493 1492 1498 1501 1500 1501 1507 1513 1519 1523 1526
1532 1531 1528 1527 1526 1523 1523 1521 1519 1518 1517 1516 1513 1510 1508 1507 1507 1506 1505 1505 1505 1506 1504 1503 1501 1500 1499 1494 1491 1492 1491 1490 1491 1492 1493 1493 1494 1497 1496 1501 1508 1514 1519 1522 1526
1530 1529 1527 1526 1523 1522 1521 1520 1518 1517 1517 1515 1513 1510 1509 1509 1505 1506 1506 1506 1506 1505 1505 1505 1504 1501 1497 1494 1493 1493 1492 1490 1490 1489 1489 1493 1496 1495 1500 1502 1510 1514 1518 1522 1524
1529 1527 1525 1524 1523 1521 1519 1518 1517 1516 1516 1514 1512 1510 1509 1507 1505 1505 1505 1505 1507 1507 1507 1506 1504 1504 1500 1497 1494 1493 1497 1492 1489 1487 1490 1490 1500 1500 1500 1504 1508 1513 1518 1522 1523
1527 1525 1523 1522 1521 1519 1518 1517 1516 1515 1515 1513 1511 1510 1506 1506 1506 1505 1505 1506 1507 1506 1506 1506 1505 1505 1502 1498 1494 1496 1496 1509 1483 1485 1488 1489 1514 1495 1498 1500 1505 1509 1514 1518 1522
1526 1524 1522 1521 1519 1517 1516 1515 1513 1513 1513 1512 1511 1511 1507 1504 1504 1504 1504 1506 1507 1507 1506 1506 1506 1505 1501 1504 1512 1500 1517 1503 1491 1481 1485 1487 1505 1492 1494 1499 1501 1506 1510 1515 1520
1524 1522 1521 1519 1518 1516 1515 1512 1511 1511 1511 1510 1511 1513 1504 1502 1500 1501 1504 1505 1506 1506 1506 1505 1505 1505 1503 1510 1536 1513 1507 1498 1493 1485 1484 1489 1496 1489 1490 1493 1497 1502 1507 1512 1516
1522 1520 1519 1518 1517 1515 1514 1511 1512 1512 1510 1506 1507 1501 1500 1501 1501 1501 1504 1505 1505 1506 1508 1502 1509 1517 1503 1497 1494 1493 1498 1500 1487 1480 1487 1490 1493 1490 1485 1489 1494 1499 1505 1509 1512
1521 1519 1517 1517 1516 1515 1514 1514 1516 1518 1509 1502 1501 1500 1498 1499 1501 1501 1504 1506 1505 1508 1502 1507 1514 1494 1491 1488 1493 1496 1501 1504 1488 1482 1486 1490 1494 1483 1483 1483 1489 1495 1501 1507 1511
1519 1517 1515 1515 1514 1514 1514 1515 1515 1514 1510 1495 1493 1494 1496 1497 1498 1498 1501 1503 1503 1504 1502 1509 1497 1490 1490 1492 1498 1498 1503 1501 1500 1486 1483 1490 1502 1491 1481 1482 1488 1492 1496 1503 1508
1517 1516 1514 1513 1516 1514 1514 1516 1516 1515 1518 1493 1485 1485 1491 1495 1495 1492 1495 1501 1499 1501 1497 1498 1487 1488 1491 1496 1495 1512 1490 1486 1490 1503 1526 1492 1538 1497 1484 1484 1484 1491 1496 1502 1505
1516 1514 1514 1513 1513 1513 1514 1513 1514 1514 1538 1472 1473 1478 1483 1489 1485 1487 1492 1496 1497 1495 1494 1500 1490 1490 1495 1494 1490 1501 1486 1491 1493 1504 1510 1510 1528 1506 1485 1495 1492 1488 1494 1498 1502
1514 1513 1512 1511 1511 1513 1512 1513 1514 1525 1530 1473 1471 1476 1482 1484 1485 1485 1488 1493 1493 1493 1490 1489 1484 1483 1486 1485 1486 1485 1492 1494 1497 1510 1546 1521 1523 1529 1511 1500 1496 1490 1492 1496 1501
1512 1510 1510 1509 1510 1511 1512 1513 1524 1529 1481 1476 1477 1475 1480 1483 1484 1482 1487 1494 1503 1510 1510 1493 1487 1482 1484 1491 1484 1489 1508 1547 1547 1548 1552 1511 1513 1515 1493 1490 1492 1494 1493 1497 1502
1509 1507 1506 1506 1508 1510 1511 1514 1528 1494 1489 1466 1471 1470 1481 1478 1481 1480 1486 1496 1492 1496 1507 1517 1519 1485 1479 1488 1494 1497 1509 1544 1549 1553 1544 1505 1528 1514 1486 1490 1489 1491 1493 1494 1499
1505 1504 1503 1504 1506 1510 1512 1522 1509 1488 1475 1473 1468 1474 1477 1473 1476 1481 1483 1489 1487 1489 1510 1507 1503 1471 1473 1477 1484 1494 1510 1494 1518 1511 1533 1522 1503 1494 1488 1488 1485 1484 1493 1497 1498
1503 1502 1500 1503 1505 1509 1512 1511 1494 1481 1479 1474 1482 1463 1477 1473 1478 1481 1483 1476 1480 1479 1480 1489 1510 1472 1470 1475 1478 1486 1484 1517 1522 1538 1547 1523 1515 1519 1501 1492 1489 1493 1493 1498 1502
1504 1503 1500 1502 1505 1509 1512 1502 1489 1484 1483 1479 1479 1480 1475 1479 1468 1474 1477 1470 1469 1471 1473 1479 1496 1492 1476 1486 1493 1493 1499 1497 1507 1518 1540 1544 1532 1497 1499 1496 1507 1513 1509 1499 1503
1505 1504 1501 1503 1507 1505 1504 1494 1491 1485 1483 1477 1475 1476 1480 1478 1470 1473 1469 1466 1461 1464 1475 1472 1487 1505 1495 1475 1471 1477 1488 1496 1528 1525 1519 1523 1529 1497 1501 1511 1516 1518 1524 1515 1508
1505 1503 1501 1502 1506 1502 1496 1492 1491 1488 1483 1479 1477 1474 1473 1479 1485 1473 1464 1461 1460 1462 1473 1474 1489 1514 1508 1490 1475 1480 1476 1476 1490 1501 1514 1529 1528 1502 1507 1520 1519 1529 1535 1523 1516
1508 1500 1499 1500 1496 1496 1497 1493 1487 1482 1481 1476 1478 1475 1476 1479 1477 1479 1475 1466 1465 1465 1468 1469 1483 1499 1522 1501 1488 1488 1482 1479 1493 1517 1511 1506 1507 1505 1497 1498 1509 1503 1521 1519 1515
1509 1500 1502 1495 1495 1493 1493 1489 1487 1481 1476 1477 1480 1478 1479 1485 1484 1483 1474 1472 1467 1468 1470 1475 1492 1488 1489 1484 1482 1484 1484 1485 1486 1492 1505 1493 1505 1502 1499 1496 1494 1495 1498 1506 1510
1511 1510 1503 1499 1492 1487 1489 1487 1485 1480 1476 1480 1483 1479 1479 1484 1486 1487 1482 1481 1484 1475 1474 1477 1496 1487 1496 1487 1485 1487 1479 1479 1478 1475 1474 1497 1503 1500 1499 1488 1484 1484 1486 1500 1507
1514 1512 1510 1500 1494 1491 1487 1483 1482 1481 1477 1479 1477 1481 1483 1489 1486 1484 1482 1481 1482 1485 1482 1484 1491 1497 1511 1493 1494 1505 1485 1483 1479 1479 1476 1482 1489 1500 1500 1497 1491 1483 1483 1497 1505
Wind_Speed
7 8 9 9 10 9 10 11 11 11 11 12 12 12 10 9 5 2 3 7 12 9 6 4 6 8 8 13 15 20 7 4 10 15 6 23 22 29 21 23 18 9 30 31 26
8 8 8 9 10 10 11 11 12 12 12 12 13 13 12 9 2 3 5 11 8 5 0 6 11 12 13 5 6 5 7 12 14 7 4 11 26 20 11 16 18 27 28 27 26
9 9 9 10 10 10 11 11 12 12 13 13 13 12 11 8 2 2 6 6 3 2 3 4 5 14 18 15 6 7 5 4 4 11 11 7 18 10 19 0 16 29 28 28 26
9 10 10 10 11 11 11 11 11 12 13 13 13 12 12 6 3 3 5 3 2 4 3 6 8 12 5 4 14 6 13 9 6 5 14 10 23 14 19 16 30 29 29 28 27
10 11 11 11 12 11 12 12 11 12 12 12 12 11 11 5 3 3 5 3 4 5 8 11 15 16 6 11 8 3 4 3 4 7 8 1 12 19 18 27 30 28 29 26 26
11 12 12 12 12 12 12 11 11 11 11 11 11 10 8 7 5 6 0 2 7 5 8 8 13 16 12 11 5 10 12 10 11 7 6 6 7 16 23 33 30 30 28 24 25
12 13 13 13 13 12 12 12 11 10 9 9 9 10 9 10 6 7 2 4 5 7 11 10 10 13 19 10 12 5 6 9 13 15 6 9 6 2 22 30 31 29 25 23 24
13 14 14 14 14 13 12 11 11 9 9 7 6 8 6 4 6 8 4 2 7 3 5 9 6 11 11 14 9 4 6 6 12 10 8 7 4 5 10 25 27 29 26 25 23
14 14 14 15 14 14 13 11 10 8 9 6 3 4 8 9 12 11 8 8 7 5 7 8 7 9 13 5 6 6 7 7 2 5 4 4 5 11 19 23 25 26 24 26 22
15 15 14 14 14 14 12 11 10 9 9 8 8 5 10 9 11 9 7 7 5 6 8 9 5 3 5 0 6 5 3 8 8 7 7 4 4 8 19 27 26 23 23 27 22
15 16 15 13 12 13 8 7 7 3 7 9 11 7 7 5 7 9 10 7 7 10 6 14 2 7 14 11 4 6 7 8 5 7 6 2 5 8 20 24 23 26 25 28 24
14 14 15 13 10 8 7 4 7 8 11 16 20 24 20 9 7 9 11 7 11 7 11 6 9 12 9 3 6 7 7 8 8 7 6 3 9 11 9 15 29 30 29 26 23
14 13 14 10 6 1 4 5 10 10 6 14 21 23 22 11 11 14 18 16 10 9 10 9 10 11 2 4 6 5 5 7 6 6 3 4 7 9 7 13 28 32 33 28 27
14 12 13 7 1 0 5 4 7 6 3 6 9 21 25 16 11 21 23 16 6 10 10 8 14 5 2 4 2 6 9 7 3 6 3 2 6 7 6 8 9 26 30 29 29
14 12 8 9 3 3 4 4 7 4 2 8 15 13 18 17 4 16 24 21 12 12 5 10 8 5 6 5 6 10 4 6 6 6 4 10 4 7 7 5 5 8 27 31 30
14 13 7 8 8 2 8 8 5 1 6 2 7 10 10 18 21 12 19 18 16 13 12 10 14 2 3 7 8 5 7 6 5 1 3 5 2 4 4 1 1 9 18 31 28
13 13 10 10 7 4 2 2 1 4 5 4 7 10 10 9 16 10 10 8 7 3 6 9 8 4 4 7 4 4 3 3 4 3 5 7 3 9 14 8 10 16 25 31 31
14 13 11 11 11 5 2 1 4 8 13 13 4 12 14 11 13 15 10 8 9 9 5 6 7 10 8 7 5 7 9 5 3 2 5 3 4 2 10 16 11 13 27 33 32
13 9 7 5 13 7 1 3 6 6 5 12 15 11 9 13 9 12 9 12 12 12 8 4 9 12 10 6 5 5 4 10 4 3 4 4 2 4 5 5 9 9 24 29 30
15 7 10 1 6 11 2 5 8 11 15 9 10 5 3 13 12 12 10 9 11 15 16 8 6 7 11 9 6 7 4 5 4 1 5 6 1 3 3 1 6 11 16 25 27
10 5 8 13 10 6 3 6 6 17 22 7 10 7 8 10 11 8 12 11 16 13 18 9 6 10 4 3 6 3 4 3 3 4 3 3 3 6 8 6 11 31 17 21 25
4 3 14 12 5 5 4 4 5 18 30 3 6 5 6 12 6 7 8 9 11 23 10 10 5 3 9 8 11 9 8 7 5 7 4 4 3 3 9 16 24 35 26 20 18
6 7 8 17 3 5 7 12 19 18 19 4 5 7 4 6 6 7 5 10 25 5 3 3 3 1 9 9 7 1 6 1 2 2 4 3 5 2 6 28 34 30 17 34 12
6 2 6 14 16 6 6 8 13 22 21 4 7 9 6 4 7 6 9 6 12 9 11 4 4 4 6 6 3 4 7 4 5 2 5 5 5 4 1 9 17 40 33 18 8
3 4 10 1 6 10 9 10 15 10 6 4 7 8 7 3 7 7 4 6 5 6 4 4 2 5 7 9 9 11 8 5 3 6 3 8 7 9 1 1 7 5 13 13 10
8 8 13 16 18 8 6 10 11 11 3 5 4 11 7 3 5 5 8 6 5 6 3 3 3 5 5 7 12 15 16 9 9 10 11 13 2 6 4 14 10 13 19 10 21
11 15 8 13 9 5 6 7 6 9 9 11 12 5 3 11 19 16 8 8 4 4 4 3 2 2 6 7 9 8 5 3 5 4 9 6 7 8 6 13 16 16 8 16 18
Wind_Direction
7 8 5 2 358 5 354 355 352 354 350 353 345 341 344 349 324 107 350 312 301 306 310 355 1 351 304 280 282 92 73 236 240 249 106 127 104 88 102 70 58 130 148 149 151
357 354 352 350 350 354 347 348 347 345 349 347 343 339 341 355 19 250 324 307 292 282 232 3 332 318 276 303 122 115 155 222 246 27 90 112 123 133 113 101 85 103 133 142 154
341 342 340 341 340 344 339 341 344 342 344 343 338 336 337 343 339 240 313 316 298 217 110 15 333 302 289 250 166 171 186 214 279 9 18 92 109 117 123 73 152 139 148 154 160
332 331 330 332 330 334 330 335 340 339 341 337 336 334 334 327 42 0 7 349 55 101 40 3 289 273 286 263 159 144 253 262 90 63 36 29 141 128 160 177 159 157 158 160 167
323 322 322 321 322 327 326 331 333 336 335 334 335 334 336 332 241 318 21 26 80 62 16 320 294 301 326 325 141 218 206 62 227 142 107 188 0 143 135 147 153 156 163 167 176
318 317 317 317 320 320 319 323 325 328 329 332 332 331 327 291 301 308 153 74 42 345 320 305 316 340 309 331 27 3 347 339 319 277 178 90 30 115 125 144 154 158 166 175 180
315 315 316 314 313 313 313 315 317 319 322 328 333 328 295 246 290 307 218 60 346 273 314 310 308 332 323 324 322 311 317 280 244 249 120 107 31 114 135 145 151 161 172 183 181
313 314 314 313 310 309 307 308 307 307 309 318 330 330 272 206 238 251 255 259 283 294 308 338 311 297 292 299 319 237 258 270 261 180 162 124 248 252 186 149 155 166 177 184 183
314 313 313 311 310 307 305 302 296 293 293 294 308 348 274 240 237 226 215 236 245 290 268 289 311 270 285 260 311 293 248 243 83 146 149 147 220 236 208 159 162 169 176 174 173
315 313 312 311 312 308 309 302 295 286 280 281 238 289 239 236 230 201 214 236 264 261 271 251 249 241 300 251 240 290 260 309 132 165 178 319 225 213 222 165 164 159 163 166 171
315 313 311 311 313 314 319 333 336 47 318 229 290 249 288 177 147 190 201 223 238 262 247 251 158 240 240 238 292 11 341 332 330 118 83 354 292 203 183 158 158 162 162 169 172
314 313 310 311 311 310 314 25 16 337 296 268 260 258 258 206 204 222 201 207 228 242 240 291 227 249 273 67 28 346 324 306 308 132 114 210 283 282 188 174 164 163 170 174 174
316 315 309 310 314 283 321 324 329 352 278 283 243 235 238 207 239 231 200 213 242 224 254 222 251 227 5 357 351 310 273 291 272 354 355 189 276 261 246 154 161 172 176 175 177
317 317 315 305 226 349 29 46 331 327 313 263 209 230 218 213 241 235 204 200 229 240 243 243 256 207 275 280 252 279 277 315 323 21 282 25 283 274 217 165 142 163 167 178 181
318 314 320 300 243 125 3 354 333 324 322 212 205 181 187 195 147 214 201 200 242 257 224 251 261 283 174 245 219 245 345 5 342 308 10 310 33 296 41 42 110 103 172 180 184
317 311 302 277 237 359 323 346 321 349 243 254 122 168 185 202 228 234 173 197 232 257 276 252 291 239 224 232 253 353 357 341 303 229 355 283 70 0 309 249 246 198 223 167 171
311 299 281 243 196 210 68 330 105 229 271 217 155 166 209 188 221 229 182 179 212 222 287 297 267 210 222 301 222 160 21 319 331 45 217 265 28 187 211 204 184 190 149 155 160
311 291 273 248 219 194 82 316 235 244 254 300 268 184 192 213 204 236 179 190 217 244 216 223 283 217 197 198 213 187 169 172 271 153 236 355 240 303 101 57 61 120 148 156 157
322 299 268 227 203 186 160 209 204 234 206 305 314 183 197 207 204 208 188 197 199 219 218 241 249 277 180 157 188 270 191 219 228 289 38 214 195 259 18 82 101 159 159 157 160
330 294 249 182 175 163 158 251 237 268 291 332 308 162 218 202 209 190 210 198 224 208 213 253 318 315 169 163 214 170 242 12 344 274 282 301 190 210 39 76 330 347 146 155 165
343 328 137 173 145 200 213 241 310 281 289 319 338 346 345 342 227 212 206 209 209 232 208 212 179 286 73 119 219 270 261 266 154 141 170 286 260 221 195 162 45 19 311 161 169
331 276 183 171 162 224 237 254 267 297 304 316 309 295 296 333 6 342 191 198 239 210 222 203 164 232 228 219 202 209 215 183 131 275 221 176 259 3 99 74 94 91 295 319 167
335 269 197 179 205 231 249 259 263 273 276 248 283 290 314 334 341 29 321 37 24 49 55 309 169 336 329 340 331 303 228 260 187 121 248 131 240 230 75 101 102 112 264 309 211
329 263 167 202 233 283 275 283 263 263 265 285 314 291 304 298 319 321 349 355 60 78 41 52 61 142 200 225 331 306 333 340 77 3 263 238 148 353 19 88 111 129 218 273 164
272 313 20 359 228 226 245 280 295 265 226 301 336 299 287 338 322 302 307 331 354 52 59 69 62 40 331 335 329 318 264 281 334 245 193 269 125 216 99 100 60 246 282 252 301
337 355 336 302 319 327 250 249 283 313 140 216 256 296 325 254 288 340 3 25 65 351 70 11 318 13 314 318 305 304 306 211 217 223 249 97 53 72 110 95 135 245 244 237 283
9 352 325 292 305 301 293 301 249 295 329 286 223 241 309 5 337 334 0 11 35 350 32 53 50 90 275 307 314 317 285 61 240 323 350 272 145 155 195 192 187 185 221 253 255